User: anonymous   Login
Location: Newark
(51.3318°N, 0.0053°E)
Time: 09:37:11
(UTC+00:00)
Language:

deb r/b Ablestar - Orbit

View from above orbital plane
View from above orbital plane
View from above satellite
View from above satellite

Ground track
Ground track

The orbit data is extracted from the following two-line orbital elements,

1 00254U 61015CF  22330.70671600  .00000765  00000-0  24540-3 0  9997
2 00254  66.7747 166.0978 0071406 341.8078  18.0474 14.43451925185675
Epoch (UTC): 26 November 2022 16:57:40
Eccentricity: 0.0071406
inclination: 66.7747°
perigee height: 696 km
apogee height: 798 km
right ascension of ascending node: 166.0978°
argument of perigee: 341.8078°
revolutions per day: 14.43451925
mean anomaly at epoch: 18.0474°
orbit number at epoch: 18567

The dashed part of the orbit path shows where the satellite is in the earth's shadow,  

DLR